Location: Huberhof
(49.2050°N, 7.4980°E)
Time: 23:04:07
(UTC+00:00)

Cosmos 44 Rocket - Pass Details

Date: 29 October 2020
Orbit: 642 x 748 km, 65.1° (Epoch: 26 November)

Event Time Altitude Azimuth Distance (km) Brightness Sun altitude
Rises 18:12:43 0° 202° (SSW) 2,985 6.8 -20.0°
Reaches altitude 10° 18:15:01 10° 198° (SSW) 2,091 5.9 -20.4°
Maximum altitude 18:19:38 53° 122° (ESE) 842 3.3 -21.1°
Enters shadow 18:19:57 52° 107° (ESE) 854 3.3 -21.2°
